Location: �clusier
(49.9361°N, 2.7869°E)
Time: 05:23:19
(UTC+00:00)

Cosmos 2016 Rocket - Pass Details

Date: 25 October 2021
Orbit: 947 x 1000 km, 83.0° (Epoch: 05 December)

Event Time Altitude Azimuth Distance (km) Brightness Sun altitude
Exits shadow 18:03:31 13° 52° (NE) 2,473 5.6 -14.3°
Drops below altitude 10° 18:04:42 10° 42° (NE) 2,695 5.9 -14.5°
Sets 18:08:10 0° 22° (NNE) 3,639 6.8 -15.1°
